Home > Weather > U.S.A. > Corpus Christi > Past weeks

Flag for U.S.A. Weather past 2 weeks in Corpus Christi, Texas, U.S.A.

53 °F


Feels Like: 49 °F
Forecast: 51 / 65 °F
Wind: 12 mph from North

Location: Corpus Christi International Airport

Current Time: Dec 1, 2015 at 11:53:26 PM

Latest Report: Dec 1, 2015 at 10:51 PM

Visibility: 10 mi

Pressure: 30.01 "Hg

Humidity: 96%

Dew point: 52 °F

Location of Corpus ChristiLocation

Historic Weather in Corpus Christi — Graph


Corpus Christi temperature yesterday

Maximum temperature yesterday: 55 °F (at 3:51 PM)
Minimum temperature yesterday: 49 °F (at 12:51 AM)
Average temperature yesterday: 52 °F

Past Weeks' High & Low Weather Summary

High78 °F (Nov 19, 12:51 PM)100% (Nov 18, 3:51 AM)30.35 "Hg (Nov 18, 3:51 AM)
Low39 °F (Nov 23, 1:51 AM)21% (Nov 18, 2:51 PM)29.57 "Hg (Nov 17, 6:51 AM)
Average61 °F85%30.04 "Hg
* Reported Nov 16 8:51 PM — Dec 1 8:51 PM, Corpus Christi, Weather by CustomWeather, © 2015

Note: Actual official high and low records may vary slightly from our data, if they occured in-between our weather recording intervals... More about our weather records


Corpus Christi weather history for previous 24 hours

Time TempWeatherWind HumidityBarometerVisibility
8:51 PM
Tue, Dec 1
54 °FMostly cloudy.8 mph97%30.01 "Hg10 mi
8:02 PM53 °FMostly cloudy.8 mph100%29.98 "Hg10 mi
6:51 PM53 °FLow clouds.9 mph100%29.99 "Hg10 mi
5:51 PM54 °FLow clouds.9 mph97%29.97 "Hg10 mi
4:51 PM55 °FLow clouds.7 mph96%29.95 "Hg10 mi
3:51 PM55 °FLow clouds.7 mph96%29.96 "Hg10 mi
2:51 PM56 °FMore clouds than sun.6 mph93%29.95 "Hg10 mi
1:51 PM54 °FLow clouds.6 mph97%29.97 "Hg10 mi
12:51 PM53 °FLow clouds.8 mph100%30.00 "Hg10 mi
12:03 PM53 °FDrizzle. Fog.9 mph100%30.03 "Hg2 mi
11:51 AM53 °FDrizzle. Fog.10 mph100%30.03 "Hg3 mi
10:51 AM53 °FMostly cloudy.13 mph96%30.05 "Hg10 mi
9:51 AM52 °FLow clouds.10 mph100%30.04 "Hg10 mi
8:51 AM51 °FLow clouds.14 mph100%30.05 "Hg10 mi
7:51 AM51 °FFog.13 mph100%30.03 "Hg6 mi
6:51 AM51 °FDrizzle. Fog.13 mph100%30.03 "Hg5 mi
5:51 AM51 °FDrizzle. Mostly cloudy.8 mph100%30.00 "Hg7 mi
4:51 AM51 °FLow clouds.16 mph100%30.01 "Hg9 mi
4:03 AM51 °FMostly cloudy.13 mph100%30.00 "Hg10 mi
3:51 AM51 °FOvercast.10 mph100%30.01 "Hg9 mi
2:51 AM53 °FMostly cloudy.10 mph100%30.01 "Hg9 mi
1:51 AM53 °FLow clouds.8 mph100%30.03 "Hg8 mi
12:51 AM53 °FDrizzle. Fog.8 mph100%30.03 "Hg5 mi
11:51 PM
Mon, Nov 30
53 °FLight rain. Fog.7 mph100%30.04 "Hg4 mi
11:03 PM53 °FLight rain. Fog.8 mph100%30.05 "Hg6 mi
Weather by CustomWeather, © 2015

See weather overviewHow to use our weather pages